Farmington, NM

3:29 PM MDT on May 25, 2017 (GMT -0600)
Four Corners Regional

Weather History for KFMN - February, 2014

Change the Weather History Date:

Monday, February 24, 2014

  Actual Average Record
Temperature  
Mean Temperature 44 °F -  
Max Temperature 63 °F 46 °F 63 °F (1998)
Min Temperature 24 °F 23 °F 14 °F (2006)
Degree Days  
Heating Degree Days 22    
Moisture  
Dew Point 9 °F    
Average Humidity 28    
Maximum Humidity 53    
Minimum Humidity 6    
Precipitation  
Precipitation 0.00 in - - ()
Sea Level Pressure  
Sea Level Pressure 30.10 in    
Wind  
Wind Speed 8 mph (NE)    
Max Wind Speed 14 mph    
Max Gust Speed 20 mph    
Visibility 10 miles    
Events      
Averages and records for this station are not official NWS values.
T = Trace of Precipitation, MM = Missing Value Source: NWS Daily Summary

Daily Weather History Graph

Daily Weather History Graph

Search for Another Location

Airport or City:

Trip Planner

Search our weather history database for the weather conditions in past years. The results will help you decide how hot, cold, wet, or windy it might be!

Date:

Astronomy

Feb. 24, 2014 Rise Set
Actual Time 6:50 AM MST 6:02 PM MST
Civil Twilight 6:24 AM MST 6:28 PM MST
Nautical Twilight 5:53 AM MST 6:58 PM MST
Astronomical Twilight 5:24 AM MST 7:28 PM MST
Moon 2:47 AM MST (2/24) 1:11 PM MST (2/24)
Length of Visible Light 12h 04m
Length of Day
11h 12m
Waning Crescent, 27% of the Moon is Illuminated
Feb 24
Waning Crescent
Mar 1
New
Mar 8
First Quarter
Mar 16
Full
Mar 23
Last Quarter

Hourly Weather History & Observations

Time (MST) Temp. Windchill Dew Point Humidity Pressure Visibility Wind Dir Wind Speed Gust Speed Precip Events Conditions
12:53 AM 26.1 °F 17.6 °F 6.1 °F 43% 30.09 in 10.0 mi NE 8.1 mph - N/A   Clear
1:53 AM 25.0 °F 16.3 °F 6.1 °F 45% 30.10 in 10.0 mi ENE 8.1 mph - N/A   Clear
2:53 AM 28.0 °F 18.6 °F 7.0 °F 41% 30.08 in 10.0 mi East 10.4 mph - N/A   Clear
3:53 AM 26.1 °F 17.6 °F 8.1 °F 47% 30.09 in 10.0 mi East 8.1 mph - N/A   Clear
4:53 AM 26.1 °F 17.6 °F 9.0 °F 49% 30.11 in 10.0 mi East 8.1 mph - N/A   Clear
5:53 AM 24.1 °F 15.2 °F 9.0 °F 53% 30.14 in 10.0 mi East 8.1 mph - N/A   Clear
6:53 AM 24.1 °F 13.7 °F 9.0 °F 53% 30.15 in 10.0 mi East 10.4 mph - N/A   Clear
7:53 AM 28.9 °F 19.8 °F 10.0 °F 45% 30.20 in 10.0 mi East 10.4 mph - N/A   Clear
8:53 AM 34.0 °F 26.6 °F 10.9 °F 38% 30.21 in 10.0 mi ESE 9.2 mph - N/A   Clear
9:53 AM 41.0 °F 36.4 °F 12.0 °F 31% 30.19 in 10.0 mi East 6.9 mph - N/A   Clear
10:53 AM 48.9 °F - 10.9 °F 22% 30.16 in 10.0 mi Variable 4.6 mph - N/A   Clear
11:53 AM 55.0 °F - 9.0 °F 16% 30.13 in 10.0 mi Calm Calm - N/A   Clear
12:53 PM 59.0 °F - 10.0 °F 14% 30.09 in 10.0 mi North - - N/A   Clear
1:53 PM 61.0 °F - 10.9 °F 14% 30.06 in 10.0 mi West 11.5 mph 17.3 mph N/A   Clear
2:53 PM 62.1 °F - 10.0 °F 13% 30.02 in 10.0 mi WNW 10.4 mph - N/A   Clear
3:53 PM 62.1 °F - 10.0 °F 13% 30.02 in 10.0 mi West 13.8 mph 19.6 mph N/A   Clear
4:53 PM 61.0 °F - 10.0 °F 13% 30.02 in 10.0 mi West 9.2 mph - N/A   Clear
5:53 PM 57.0 °F - 10.0 °F 15% 30.04 in 10.0 mi WNW 4.6 mph - N/A   Clear
6:53 PM 51.1 °F - 10.0 °F 19% 30.07 in 10.0 mi NW 3.5 mph - N/A   Clear
7:53 PM 48.9 °F - 10.0 °F 21% 30.08 in 10.0 mi West 3.5 mph - N/A   Clear
8:53 PM 37.9 °F 32.1 °F 10.0 °F 32% 30.12 in 10.0 mi NNE 8.1 mph - N/A   Clear
9:53 PM 35.1 °F 29.3 °F 9.0 °F 34% 30.11 in 10.0 mi NNE 6.9 mph - N/A   Clear
10:53 PM 32.0 °F 27.5 °F 8.1 °F 37% 30.09 in 10.0 mi NNE 4.6 mph - N/A   Clear
11:53 PM 28.9 °F 25.2 °F 8.1 °F 41% 30.09 in 10.0 mi NNE 3.5 mph - N/A   Clear